FENGYUN 1C DEB

Satellite information

Favourite Embed

Satellite Type and Status

DEBRISIN ORBIT

Key statistics

Satellite FENGYUN 1C DEB at a glance.

Uptime

9715

Days in orbit

Revolutions

≈ 14.3

Per day

Orbit

SSO

Sun Synchronous Orbit

Inclination

99.4

Latest

Satellite identification and parameters

Extended collection of information and parameters for FENGYUN 1C DEB.

Object identification

Identified? True

Debris? True

Object name: FENGYUN 1C DEB

International designator: 1999-025BSC

Object number (NORAD): 31372

Object ID (CCSDS): 31372

Country: PEOPLES REPUBLIC OF CHINA (PRC)

Current information (Y/N): Y

RCS size: SMALL

Orbital parameters

Period: 100.944 minutes

Inclination: 99.3738 deg

SMA: 7181.469 km

Apoapsis: 827.647 km

Periapsis: 779.02 km

RAAN: 337.7324 deg

Eccentricy: 0.00338558

Argument of periapsis: 75.0305 deg

Mean anomaly: 285.4617 deg

Mean motion: 14.26536395 rev/day

Mean motion (dot): 0.00005717 rev/day2

B* drag term: 0.0023753396 1/REarth

Two-line elements (TLE)

Creation date: Dec. 13, 2025, 4:32 a.m.

Reference frame: TEME

Reference center: EARTH

Epoch: Dec. 12, 2025, 4:37 p.m. UTC

TLE line 0: 0 FENGYUN 1C DEB

TLE line 1: 1 31372U 99025BSC 25346.69259278 .00005717 00000-0 23753-2 0 9991

TLE line 2: 2 31372 99.3738 337.7324 0033856 75.0305 285.4617 14.26536395958505

Live tracking on map

Real-time ground track for satellite FENGYUN 1C DEB.

In-orbit conjunctions

A list of the most updated potential collisions computed for object FENGYUN 1C DEB.

Target Orbit TCA Probability of collision Miss distance Type
SL-3 DEB LEO 2025-06-25 16:08:44 0.0001823088 155.0 (m) DEBRIS
FENGYUN 1C DEB SSO 2024-11-15 08:22:40 0.0001612545 394.0 (m) DEBRIS
SL-3 R/B LEO 2024-09-26 16:15:59 0.0002058628 266.0 (m) ROCKET BODY

Associated space launch

Chinese polar orbiting meteorological satellite

FENGYUN 1C DEB was lifted into orbit during the mission ‘Long March 4B | Feng Yun 1C’, on board a Long March 4B space rocket.

The launch took place on May 10, 1999, 1:33 a.m. from Launch Complex 7.

For more information about the launch, click the button.

Launch to space Long March 4B | Feng Yun 1C
Long March 4B | Feng Yun 1C

Agency: N/A

Status: Launch Successful

Launch date: May 10, 1999, 1:33 a.m. UTC

Rocket: Long March 4B

Launch pad: Launch Complex 7

Location: Taiyuan Satellite Launch Center, People's Republic of China

...

Latest news about this satellite

There are no fresh news available about this satellite. Check back as we update our databases every day.


Newsletter sign-up

Weekly statistics, charts and insights to help you stay on top of the space industry.